This is the latest recevied weather packets stored in our database for station/object WB5TZJ. If no packets are shown the sender has not sent any weather packets the latest 10 day(s).
| Time | Temp. | Humidity | Pressure | Rain* | Wind** | Luminosity | Snow |
|---|---|---|---|---|---|---|---|
| 1777791040 | 22.78° C | 46% | 1020.3 hPa | 0 mm | - | - | - |
| 1777790440 | 22.78° C | 43% | 1020.6 hPa | 0 mm | - | - | - |
| 1777789840 | 22.78° C | 47% | 1020.3 hPa | 0 mm | - | - | - |
| 1777789240 | 22.78° C | 45% | 1020.6 hPa | 0 mm | - | - | - |
| 1777788640 | 22.78° C | 45% | 1020.9 hPa | 0 mm | - | - | - |
| 1777788040 | 22.78° C | 47% | 1020.6 hPa | 0 mm | - | - | - |
| 1777787440 | 22.78° C | 47% | 1020.9 hPa | 0 mm | - | - | - |
| 1777786840 | 22.78° C | 45% | 1020.9 hPa | 0 mm | - | - | - |
| 1777786240 | 22.78° C | 46% | 1020.6 hPa | 0 mm | - | - | - |
| 1777785640 | 22.78° C | 46% | 1020.6 hPa | 0 mm | - | - | - |
| 1777785040 | 22.78° C | 44% | 1020.6 hPa | 0 mm | - | - | - |
| 1777784440 | 22.78° C | 47% | 1020.6 hPa | 0 mm | - | - | - |
| 1777783840 | 22.22° C | 47% | 1020.3 hPa | 0 mm | - | - | - |
| 1777783240 | 22.78° C | 47% | 1020.3 hPa | 0 mm | - | - | - |
| 1777782640 | 22.78° C | 46% | 1020.6 hPa | 0 mm | - | - | - |
| 1777782040 | 22.78° C | 46% | 1020.3 hPa | 0 mm | - | - | - |
| 1777781440 | 22.22° C | 47% | 1020.3 hPa | 0 mm | - | - | - |
| 1777780840 | 22.22° C | 45% | 1020.6 hPa | 0 mm | - | - | - |
| 1777780240 | 22.78° C | 46% | 1020.3 hPa | 0 mm | - | - | - |
| 1777779640 | 22.78° C | 46% | 1020.3 hPa | 0 mm | - | - | - |
| 1777779040 | 22.78° C | 44% | 1019.9 hPa | 0 mm | - | - | - |
| 1777778440 | 22.78° C | 47% | 1019.9 hPa | 0 mm | - | - | - |
| 1777777840 | 22.78° C | 45% | 1019.6 hPa | 0 mm | - | - | - |
| 1777777240 | 22.78° C | 45% | 1019.6 hPa | 0 mm | - | - | - |
| 1777776640 | 22.78° C | 44% | 1019.6 hPa | 0 mm | - | - | - |
* Rain latest hour (hover to see other rain measurements)
** Current wind speed in m/s (hover to see current wind gust speed)